Regional Weather Roundup
Issued by NWS Midland/Odessa, TX

Skip options and go directly to product.
Home | Oldest Version | Next Version | Current Version | All | Text Only | Save Text | Print | Product List | Glossary On

Skip product version selection by date and time.   
767
ASUS44 KMAF 310101
RWRMAF
MIDLAND AREA WEATHER ROUNDUP
NATIONAL WEATHER SERVICE MIDLAND TX
800 PM CDT MON MAR 30 2015

...IN SOUTHWEST TEXAS AND SOUTHEAST NEW MEXICO...

CITY           SKY/WX    TMP DP  RH WIND       PRES   REMARKS
ALPINE         CLOUDY    73  41  32 NE5       30.19S
ANDREWS        FAIR      73  53  50 S6        30.07F
ARTESIA        CLOUDY    70  48  46 SE14      30.06F
BIG SPRING     CLOUDY    79  50  35 SE5       30.05F
CARLSBAD       CLOUDY    70  51  51 SE8       30.05S
DRYDEN           N/A     70  61  73 E7        30.06S
FORT STOCKTON  CLOUDY    76  50  40 SE13      30.05S
GUAD PASS      CLOUDY    66  38  35 E10       30.18S
HOBBS          CLOUDY    68  48  49 S7        30.09S
MARFA          CLOUDY    73  28  19 SW5       30.18S
MIDLAND AIRPK  CLOUDY    78  52  39 S5        30.05R
MIDLAND INTL   CLOUDY    77  53  43 S6        30.04S
ODESSA         CLOUDY    76  52  43 S6        30.06S
PECOS          CLOUDY    75  52  45 CALM      30.04S
PRESIDIO       FAIR      81  41  24 NW8       30.02F
SEMINOLE       CLOUDY    70  53  54 S7        30.08F
SNYDER         MOCLDY    77  51  40 CALM      30.04F
WINK           CLOUDY    74  53  48 S3        30.03F
$$
...OTHER STATIONS IN TEXAS...

CITY           SKY/WX    TMP DP  RH WIND       PRES   REMARKS
ABILENE        MOCLDY    76  55  48 SE8       30.02F
AMARILLO       MOCLDY    71  35  26 S14       30.03S
AUSTIN         PTCLDY    72  63  73 S8        30.05R
BROWNSVILLE    CLEAR     72  66  81 SE10      30.08S
CORPUS CHRISTI PTCLDY    72  66  81 SE16      30.08R
DALLAS FTW     CLOUDY    71  62  73 SE9       30.02F
DEL RIO        MOCLDY    76  62  62 SW7       30.02S
EL PASO        CLOUDY    81  26  13 S10       30.04F
HOUSTON INT    PTCLDY    76  59  55 S7        30.08S
LUBBOCK        MOCLDY    69  48  47 S9        30.04F
SAN ANGELO     PTCLDY    80  55  42 S8        30.01S
SAN ANTONIO    PTCLDY    74  62  66 S8        30.07S
WACO           CLEAR     72  62  71 S10       30.04S
WICHITA FALLS  NOT AVBL
$$
...OTHER LOCATIONS IN NEW MEXICO...

CITY           SKY/WX    TMP DP  RH WIND       PRES   REMARKS
ALAMAGORDO     CLOUDY    75  28  17 S6        30.07R
ALBUQUERQUE    MOCLDY    74  18  12 CALM      30.11R
CANNON AFB     PTCLDY    74  34  23 SW12      30.06R
CLOVIS         PTCLDY    70  43  37 S14       30.05R
HOLLOMAN AFB   MOCLDY    79  27  14 SW16      30.06R
ROSWELL        CLOUDY    71  46  40 E7        30.06S
RUIDOSO        CLOUDY    64  25  22 NW13G18   30.24R
SANTA FE       MOCLDY    66  16  14 N3        30.16F
TRUTH OR CONSE CLOUDY    77  24  14 N3        30.08R
TUCUMCARI      PTCLDY    72  31  22 CALM      30.02S
$$

USA.gov is the U.S. government's official web portal to all federal, state and local government web resources and services.